Change the Weather History Date:

Wednesday, January 18, 2012

  Actual Average (KESN) Record (KESN)
Temperature  
Mean Temperature 45 °F -  
Max Temperature 55 °F 41 °F 64 °F (2006)
Min Temperature 35 °F 22 °F -1 °F (1965)
Degree Days  
Heating Degree Days 20    
Moisture  
Dew Point 31 °F    
Average Humidity 59    
Maximum Humidity 88    
Minimum Humidity 42    
Precipitation  
Precipitation 0.00 in - - ()
Sea Level Pressure  
Sea Level Pressure 29.95 in    
Wind  
Wind Speed 11 mph (NW)    
Max Wind Speed 21 mph    
Max Gust Speed 32 mph    
Visibility 10 miles    
Events      
Averages and records for this station are not official NWS values.
T = Trace of Precipitation, MM = Missing Value Source: NWS Daily Summary

Daily Weather History Graph

Daily Weather History Graph

Search for Another Location

Airport or City:

Trip Planner

Search our weather history database for the weather conditions in past years. The results will help you decide how hot, cold, wet, or windy it might be!

Date:

Astronomy

Jan. 18, 2012 Rise Set
Actual Time 7:19 AM EST 5:09 PM EST
Civil Twilight 6:50 AM EST 5:38 PM EST
Nautical Twilight 6:17 AM EST 6:11 PM EST
Astronomical Twilight 5:46 AM EST 6:43 PM EST
Moon 2:46 AM EST (1/18) 12:47 PM EST (1/18)
Length of Visible Light 10h 48m
Length of Day
9h 50m
Waning Crescent, 25% of the Moon is Illuminated
Jan 18
Waning Crescent
Jan 23
New
Jan 30
First Quarter
Feb 7
Full
Feb 14
Last Quarter

Hourly Weather History & Observations

Time (EST) Temp. Windchill Dew Point Humidity Pressure Visibility Wind Dir Wind Speed Gust Speed Precip Events Conditions
12:17 AM 55.4 °F - 50.0 °F 82% 29.71 in 10.0 mi SSW 6.9 mph - N/A   Clear
12:37 AM 55.4 °F - 50.0 °F 82% 29.72 in 10.0 mi SSW 6.9 mph - N/A   Clear
12:56 AM 55.4 °F - 50.0 °F 82% 29.71 in 10.0 mi SSW 5.8 mph - N/A   Clear
1:15 AM 55.4 °F - 50.0 °F 82% 29.72 in 10.0 mi SSW 5.8 mph - N/A   Clear
1:54 AM 55.4 °F - 50.0 °F 82% 29.71 in 10.0 mi SSW 3.5 mph - N/A   Mostly Cloudy
2:13 AM 55.4 °F - 50.0 °F 82% 29.72 in 10.0 mi Calm Calm - N/A   Mostly Cloudy
2:33 AM 55.4 °F - 50.0 °F 82% 29.72 in 10.0 mi Calm Calm - N/A   Overcast
2:52 AM 55.4 °F - 51.8 °F 88% 29.73 in 10.0 mi WSW 4.6 mph - N/A   Overcast
3:11 AM 55.4 °F - 50.0 °F 82% 29.76 in 10.0 mi NW 16.1 mph 32.2 mph N/A   Overcast
3:31 AM 51.8 °F - 41.0 °F 67% 29.77 in 10.0 mi NW 16.1 mph 24.2 mph N/A   Overcast
3:50 AM 51.8 °F - 35.6 °F 54% 29.79 in 10.0 mi NW 16.1 mph 29.9 mph N/A   Overcast
4:09 AM 50.0 °F - 35.6 °F 58% 29.80 in 10.0 mi NW 12.7 mph 24.2 mph N/A   Overcast
4:29 AM 50.0 °F - 35.6 °F 58% 29.83 in 10.0 mi NW 12.7 mph 23.0 mph N/A   Overcast
4:48 AM 46.4 °F 39.0 °F 33.8 °F 62% 29.84 in 10.0 mi NW 19.6 mph 27.6 mph N/A   Overcast
5:07 AM 46.4 °F 39.0 °F 32.0 °F 57% 29.85 in 10.0 mi NW 19.6 mph 26.5 mph N/A   Overcast
5:27 AM 46.4 °F 40.4 °F 32.0 °F 57% 29.87 in 10.0 mi NW 13.8 mph 27.6 mph N/A   Mostly Cloudy
5:46 AM 44.6 °F 37.8 °F 30.2 °F 57% 29.87 in 10.0 mi NW 15.0 mph 24.2 mph N/A   Scattered Clouds
6:05 AM 44.6 °F 37.8 °F 30.2 °F 57% 29.88 in 10.0 mi NW 15.0 mph 24.2 mph N/A   Scattered Clouds
6:25 AM 44.6 °F 38.8 °F 30.2 °F 57% 29.89 in 10.0 mi NW 11.5 mph 18.4 mph N/A   Scattered Clouds
6:44 AM 42.8 °F 34.0 °F 30.2 °F 61% 29.91 in 10.0 mi NNW 20.7 mph 24.2 mph N/A   Scattered Clouds
7:03 AM 42.8 °F 35.1 °F 30.2 °F 61% 29.93 in 10.0 mi NW 16.1 mph 26.5 mph N/A   Clear
7:22 AM 42.8 °F 36.2 °F 30.2 °F 61% 29.94 in 10.0 mi NW 12.7 mph 20.7 mph N/A   Clear
7:42 AM 41.0 °F 33.9 °F 30.2 °F 65% 29.95 in 10.0 mi NW 12.7 mph 24.2 mph N/A   Clear
8:01 AM 41.0 °F 34.3 °F 30.2 °F 65% 29.96 in 10.0 mi NW 11.5 mph 24.2 mph N/A   Clear
8:20 AM 42.8 °F 35.1 °F 30.2 °F 61% 29.98 in 10.0 mi NW 16.1 mph 28.8 mph N/A   Clear
8:40 AM 42.8 °F 35.4 °F 28.4 °F 57% 29.99 in 10.0 mi NW 15.0 mph 24.2 mph N/A   Clear
8:59 AM 42.8 °F 35.8 °F 30.2 °F 61% 30.00 in 10.0 mi WNW 13.8 mph 21.9 mph N/A   Clear
9:18 AM 42.8 °F 35.8 °F 28.4 °F 57% 30.01 in 10.0 mi WNW 13.8 mph 26.5 mph N/A   Clear
9:37 AM 42.8 °F 35.8 °F 28.4 °F 57% 30.02 in 10.0 mi NW 13.8 mph 21.9 mph N/A   Scattered Clouds
9:57 AM 41.0 °F 34.3 °F 28.4 °F 61% 30.03 in 10.0 mi NW 11.5 mph 21.9 mph N/A   Scattered Clouds
10:16 AM 42.8 °F 34.5 °F 28.4 °F 57% 30.04 in 10.0 mi NW 18.4 mph 25.3 mph N/A   Scattered Clouds
10:35 AM 42.8 °F 35.8 °F 28.4 °F 57% 30.04 in 10.0 mi WNW 13.8 mph 25.3 mph N/A   Clear
10:55 AM 42.8 °F 35.1 °F 28.4 °F 57% 30.04 in 10.0 mi NW 16.1 mph 25.3 mph N/A   Clear
11:14 AM 42.8 °F 34.8 °F 28.4 °F 57% 30.04 in 10.0 mi NW 17.3 mph 26.5 mph N/A   Clear
11:33 AM 42.8 °F 35.8 °F 26.6 °F 53% 30.03 in 10.0 mi NW 13.8 mph 21.9 mph N/A   Scattered Clouds
11:52 AM 42.8 °F 34.8 °F 26.6 °F 53% 30.03 in 10.0 mi NW 17.3 mph 24.2 mph N/A   Scattered Clouds
12:12 PM 41.0 °F 32.8 °F 28.4 °F 61% 30.03 in 10.0 mi NNW 16.1 mph 20.7 mph N/A   Mostly Cloudy
12:31 PM 42.8 °F 34.8 °F 28.4 °F 57% 30.04 in 10.0 mi NNW 17.3 mph 24.2 mph N/A   Mostly Cloudy
12:50 PM 42.8 °F 34.8 °F 26.6 °F 53% 30.04 in 10.0 mi NW 17.3 mph 25.3 mph N/A   Mostly Cloudy
1:10 PM 42.8 °F 34.3 °F 26.6 °F 53% 30.04 in 10.0 mi NW 19.6 mph 28.8 mph N/A   Mostly Cloudy
1:29 PM 42.8 °F 34.8 °F 26.6 °F 53% 30.03 in 10.0 mi NW 17.3 mph 21.9 mph N/A   Scattered Clouds
1:48 PM 41.0 °F 32.2 °F 23.0 °F 49% 30.04 in 10.0 mi NW 18.4 mph 25.3 mph N/A   Scattered Clouds
2:08 PM 41.0 °F 32.2 °F 23.0 °F 49% 30.04 in 10.0 mi NNW 18.4 mph 23.0 mph N/A   Clear
2:27 PM 41.0 °F 32.8 °F 23.0 °F 49% 30.03 in 10.0 mi NW 16.1 mph 24.2 mph N/A   Clear
2:46 PM 41.0 °F 33.1 °F 23.0 °F 49% 30.04 in 10.0 mi NW 15.0 mph 21.9 mph N/A   Clear
3:05 PM 41.0 °F 32.8 °F 21.2 °F 45% 30.05 in 10.0 mi NNW 16.1 mph 24.2 mph N/A   Clear
3:25 PM 41.0 °F 32.8 °F 21.2 °F 45% 30.06 in 10.0 mi NNW 16.1 mph 23.0 mph N/A   Clear
3:44 PM 41.0 °F 32.8 °F 19.4 °F 42% 30.07 in 10.0 mi NNW 16.1 mph 21.9 mph N/A   Clear
4:03 PM 41.0 °F 33.1 °F 21.2 °F 45% 30.07 in 10.0 mi NNW 15.0 mph 24.2 mph N/A   Clear
4:23 PM 37.4 °F 28.2 °F 19.4 °F 48% 30.08 in 10.0 mi NNW 16.1 mph 23.0 mph N/A   Clear
4:42 PM 37.4 °F 29.3 °F 19.4 °F 48% 30.09 in 10.0 mi NNW 12.7 mph 23.0 mph N/A   Clear
5:01 PM 37.4 °F 30.3 °F 19.4 °F 48% 30.10 in 10.0 mi NNW 10.4 mph 19.6 mph N/A   Clear
5:20 PM 37.4 °F 29.8 °F 19.4 °F 48% 30.10 in 10.0 mi NNW 11.5 mph 19.6 mph N/A   Clear
5:40 PM 37.4 °F 29.8 °F 19.4 °F 48% 30.11 in 10.0 mi NNW 11.5 mph 19.6 mph N/A   Clear
5:59 PM 37.4 °F 30.3 °F 21.2 °F 52% 30.12 in 10.0 mi North 10.4 mph - N/A   Clear
6:18 PM 35.6 °F 29.9 °F 19.4 °F 52% 30.12 in 10.0 mi North 6.9 mph - N/A   Clear
6:38 PM 35.6 °F 29.2 °F 19.4 °F 52% 30.13 in 10.0 mi North 8.1 mph - N/A   Clear
6:57 PM 35.6 °F 29.2 °F 19.4 °F 52% 30.14 in 10.0 mi North 8.1 mph - N/A   Clear
7:16 PM 35.6 °F 29.9 °F 17.6 °F 48% 30.15 in 10.0 mi North 6.9 mph - N/A   Clear
7:35 PM 35.6 °F 30.7 °F 17.6 °F 48% 30.16 in 10.0 mi North 5.8 mph - N/A   Clear
7:55 PM 35.6 °F 29.2 °F 19.4 °F 52% 30.16 in 10.0 mi North 8.1 mph - N/A   Clear
8:14 PM 35.6 °F 29.2 °F 19.4 °F 52% 30.16 in 10.0 mi North 8.1 mph - N/A   Clear
8:33 PM 35.6 °F 29.2 °F 19.4 °F 52% 30.16 in 10.0 mi North 8.1 mph - N/A   Clear
8:53 PM 35.6 °F 29.9 °F 19.4 °F 52% 30.17 in 10.0 mi North 6.9 mph - N/A   Clear
9:12 PM 33.8 °F 27.7 °F 19.4 °F 56% 30.16 in 10.0 mi North 6.9 mph - N/A   Clear
9:31 PM 33.8 °F 27.7 °F 19.4 °F 56% 30.17 in 10.0 mi North 6.9 mph - N/A   Clear
9:51 PM 32.0 °F 26.4 °F 17.6 °F 55% 30.16 in 10.0 mi North 5.8 mph - N/A   Clear
10:49 PM 32.0 °F 26.4 °F 19.4 °F 60% 30.18 in 10.0 mi North 5.8 mph - N/A   Clear
11:08 PM 32.0 °F 25.6 °F 19.4 °F 60% 30.18 in 10.0 mi NNW 6.9 mph - N/A   Clear
11:27 PM 32.0 °F 25.6 °F 19.4 °F 60% 30.17 in 10.0 mi North 6.9 mph - N/A   Clear
11:47 PM 32.0 °F 27.5 °F 19.4 °F 60% 30.17 in 10.0 mi North 4.6 mph - N/A   Clear